Regional Weather Roundup
Issued by NWS

Home | Current Version | Previous Version | Text Only | Print | Product List | Glossary Off
Versions: 1 2 3 4 5 6 7 8 9 10 11 12 13 14 15 16 17 18 19 20 21 22 23 24 25 26 27 28 29 30 31 32 33 34 35 36 37 38 39 40 41 42 43 44 45 46 47 48 49 50

000
ASUS43 KDTX 010210
RWRMI
MICHIGAN HOURLY REGIONAL WEATHER ROUNDUP
NATIONAL WEATHER SERVICE DETROIT/PONTIAC MI
1000 PM EDT MON AUG 31 2015

NOTE: "FAIR" INDICATES FEW OR NO CLOUDS BELOW 12,000 FEET WITH NO
SIGNIFICANT WEATHER AND/OR OBSTRUCTION TO VISIBILITY.

MIZ047>049-052>055-059>063-066>070-074>076-081>083-010300-
SOUTHEAST LOWER MICHIGAN

CITY           SKY/WX    TMP DP  RH WIND       PRES   REMARKS
ADRIAN         CLEAR     69  65  86 CALM      30.08R
ALMA           CLEAR     65  65  99 CALM      30.06S FOG
ANN ARBOR      FOG       67  66  97 CALM      30.07R VSB 1/2
BAD AXE        CLEAR     64  63  96 S3        30.06R
CARO           FOG       62  62  99 CALM      30.06R VSB 1/4
DETROIT CITY   CLEAR     74  62  66 CALM      30.06R
DETROIT        CLEAR     76  70  82 S3        30.06S
FLINT          CLEAR     68  65  90 CALM      30.06R FOG
GROSSE ILE     CLEAR     73  70  88 S3        30.05S FOG
HILLSDALE      CLEAR     68  68 100 CALM      30.09S FOG
HOWELL         CLEAR     68  65  91 CALM      30.07S FOG

CITY           SKY/WX    TMP DP  RH WIND       PRES   REMARKS
JACKSON        CLEAR     68  67  96 CALM      30.08R FOG
LAMBERTVILLE   CLEAR     71  68  88 CALM      30.07S
LANSING        CLEAR     69  66  90 CALM      30.07R
LAPEER         FOG       64  64 100 CALM      30.07R VSB 1/2
MASON          FOG       67  64  91 CALM      30.07S VSB 3/4
MONROE         CLEAR     70  68  93 CALM      30.05S FOG
MT. CLEMENS    CLEAR     69  64  86 CALM      30.04R
PONTIAC        CLEAR     70  66  87 CALM      30.06R
PORT HOPE        N/A     69  66  90 SW5       30.03R
PORT HURON     FOG       63  63 100 CALM      30.06S VSB 1/4
TRI CITIES     CLEAR     69  65  86 CALM      30.06R
MIDLAND        FOG       66  65  96 CALM      30.04S VSB 1
TROY           CLEAR     76  64  67 CALM      30.08R
SAGINAW HB     CLEAR     64  64 100 S3        30.05R FOG
$$
MIZ043>046-050>051-056>058-064>065-071>073-077>080-010300-
SOUTHWEST LOWER MICHIGAN

CITY           SKY/WX    TMP DP  RH WIND       PRES   REMARKS
BATTLE CREEK   CLEAR     70  67  90 CALM      30.08R
BENTON HARBOR  CLEAR     69  67  93 CALM      30.04R FOG
BIG RAPIDS     CLEAR     66  64  94 CALM      30.06R
COLDWATER      CLEAR     69  69  99 CALM      30.08R FOG
FREMONT        FOG       64  64 100 CALM      30.05R VSB 1/2
HOLLAND        CLEAR     66  64  93 CALM      30.06R FOG
GRAND RAPIDS   CLEAR     71  66  84 CALM      30.06R
IONIA          FAIR      67  67 100 CALM      30.05S FOG
KALAMAZOO      CLEAR     69  65  86 CALM      30.07R
LUDINGTON        N/A     65  64  93 CALM      30.04S FOG
MARSHALL       CLEAR     67  65  93 CALM      30.07R FOG
MOUNT PLEASANT FOG       68  66  92 CALM      30.05S VSB 1/2
MUSKEGON       CLOUDY    66  62  87 CALM      30.05R FOG
SOUTH HAVEN    CLEAR     67  65  94 CALM      30.05R FOG
$$
MIZ016>042-010300-
NORTHERN LOWER MICHIGAN

CITY           SKY/WX    TMP DP  RH WIND       PRES   REMARKS
ALPENA         CLEAR     64  62  93 CALM      30.02S FOG
BEAVER ISLAND  CLEAR     67  65  93 SW7       30.00S
BELLAIRE       CLEAR     68  66  93 CALM      30.02S
CADILLAC       CLEAR     66  64  94 SW3       30.06S
CHARLEVOIX     CLEAR     67  66  94 CALM      30.04S
FRANKFORT      CLEAR     68  65  90 CALM      30.03R
GAYLORD        CLEAR     69  65  86 W3        30.05R
GRAYLING       CLEAR     66  64  91 SW3       30.06R
HARBOR SPRINGS CLEAR     65  65  97 CALM      30.02R
HOUGHTON LAKE  CLEAR     70  65  84 SW3       30.06R
MANISTEE       CLEAR     64  61  88 CALM      30.04S
OSCODA         CLEAR     68  65  92 SW5       30.02S
PELLSTON       FOG       63  62  97 CALM      30.02R VSB 1
ROGERS CITY    MOCLDY    65  63  93 SE3       30.03S FOG
TRAVERSE CITY  CLEAR     71  67  87 CALM      30.02R
$$
MIZ007>008-015-010300-
EASTERN UPPER MICHIGAN

CITY           SKY/WX    TMP DP  RH WIND       PRES   REMARKS
KINROSS        CLEAR     64  64 100 S8        30.00S
MACKINAC ISLAN CLEAR     66  64  91 SE7       30.01F
NEWBERRY       CLOUDY    66  65  96 SW15G21   29.99R
S. S. MARIE    CLEAR     66  62  87 SE3       29.99S
MUNISING         N/A     71  65  81 S10       29.94R
$$
MIZ004>006-011>014-085-010300-
CENTRAL UPPER MICHIGAN

CITY           SKY/WX    TMP DP  RH WIND       PRES   REMARKS
MANISTIQUE     CLOUDY    65  64  96 S9        29.99R FOG
ESCANABA       CLEAR     66  63  88 S3        29.97R
MENOMINEE      CLEAR     70  64  83 SW5       29.98R
SAWYER-GWINN   CLEAR     72  68  88 SW9       29.97R
$$
MIZ001>003-009>011-084-010300-
WESTERN UPPER MICHIGAN

CITY           SKY/WX    TMP DP  RH WIND       PRES   REMARKS
IRON MOUNTAIN  CLEAR     68  64  87 SE6       29.97R
HOUGHTON       CLEAR     75  62  64 SW9       29.91R
IRONWOOD       CLEAR     73  66  78 SW10G21   29.90R
$$

ABBREVIATIONS USED IN REMARKS
   TC - TEMPERATURE IN CELSIUS
  WCI - WIND CHILL INDEX
   HX - HEAT INDEX
  VSB - VISIBILITY



USA.gov is the U.S. government's official web portal to all federal, state and local government web resources and services.